#timestamp,LO_Frequency,Hit,StdDev 
1506380415.6,286047005.9,N
1506380435.5,286047002.6,N
1506380455.3,286047004.1,N
1506380475.1,286047004.9,N
1506380495.8,286047007.0,N
1506380515.7,286047004.7,N
1506380535.5,286047007.6,Y
1506380555.3,286046999.4,P
1506380575.2,286046998.0,N
1506380595.0,286046994.2,N
1506380595.9,286046994.2,N
1506380615.7,286046990.4,N
1506380635.6,286046993.0,N
1506380655.4,286046991.7,N
1506380675.2,286046994.4,N
1506380695.1,286046993.1,N
1506380696.0,286046993.1,N
1506380715.8,286046988.5,N
1506380735.6,286046988.6,N
1506380755.5,286046989.2,N
1506380775.3,286046984.3,Y
1506380795.1,286046997.6,P
1506380815.9,286046998.4,N
1506380835.7,286047000.9,N
1506380855.5,286047004.4,N
1506380875.4,286047005.7,N
1506380895.2,286047008.9,N
1506380915.0,286047008.3,N
1506380915.9,286047008.3,N
1506380935.8,286047011.3,N
1506380955.6,286047012.8,N
1506380975.4,286047016.6,N
1506380995.2,286047015.4,N
1506381015.1,286047014.6,N
1506381016.0,286047014.6,N
1506381035.8,286047018.1,N
1506381055.6,286047017.6,N
1506381075.5,286047018.4,N
1506381095.3,286047019.6,N
1506381115.1,286047022.0,N
1506381135.9,286047019.9,N
1506381155.7,286047022.0,N
1506381175.5,286047020.6,N
1506381195.4,286047023.6,N
1506381215.2,286047022.8,N
1506381235.0,286047022.6,N
1506381235.9,286047022.6,N
1506381255.8,286047022.5,N
1506381275.6,286047021.1,N
1506381295.4,286047023.6,N
1506381315.3,286047023.5,N
1506381335.1,286047021.0,N
1506381336.0,286047021.0,N
1506381355.8,286047020.8,Y
1506381375.7,286047001.5,P
1506381395.5,286047005.9,N
1506381415.3,286047003.8,N
1506381435.2,286047005.5,N
1506381455.9,286047005.9,N
1506381475.7,286047007.4,N
1506381495.5,286047006.3,N
1506381515.4,286047009.2,N
1506381535.2,286047006.0,N
1506381555.0,286047003.1,N
1506381555.9,286047003.1,N
1506381575.8,286047003.8,N
1506381595.6,286047002.5,N
1506381615.4,286047001.5,N
1506381635.3,286047002.8,N
1506381655.1,286047001.9,N
1506381675.8,286047000.3,N
1506381695.7,286047000.9,N
1506381715.5,286046999.0,N
1506381735.3,286046999.4,N
1506381755.2,286046997.6,N
1506381775.9,286046996.2,N
1506381795.7,286046995.2,N
1506381815.5,286046995.7,N
1506381835.4,286046997.7,N
1506381855.2,286046993.6,N
1506381875.0,286046994.4,N
1506381875.9,286046994.4,N
1506381895.8,286046993.2,N
1506381915.6,286046993.2,N
1506381935.4,286046990.4,N
1506381955.3,286046989.0,N
1506381975.1,286046987.6,N
1506381995.8,286046986.2,N
1506382015.7,286046984.0,N
1506382035.5,286046985.5,N
1506382055.3,286046986.2,N
1506382075.2,286046989.9,N
1506382095.9,286046989.2,N
1506382115.7,286046990.9,N
1506382135.6,286046992.5,N
1506382155.4,286046992.5,N
1506382175.2,286046990.5,N
1506382195.0,286046991.5,N
1506382196.0,286046991.5,N
1506382215.8,286046993.0,N
1506382235.6,286046993.0,N
1506382255.4,286046991.9,N
1506382275.3,286046992.8,N
1506382295.1,286046992.2,N
1506382315.8,286046992.7,N
1506382335.7,286046992.3,N
1506382355.5,286046992.9,N
1506382375.3,286046992.6,N
1506382395.2,286046992.1,N
1506382415.9,286046992.1,N
1506382435.7,286046994.1,N
1506382455.6,286046996.0,N
1506382475.4,286046993.3,N
1506382495.2,286046994.5,N
1506382515.1,286046994.0,N
1506382516.0,286046994.0,N
1506382535.8,286046994.0,N
1506382555.6,286046994.1,N
1506382575.4,286046994.8,N
1506382595.3,286046991.8,Y
1506382615.1,286046998.1,P
1506382635.9,286047002.6,N
1506382655.7,286047002.0,N
1506382675.5,286046999.9,N
1506382695.3,286046998.1,N
1506382715.2,286047000.6,N
1506382735.0,286047002.4,N
1506382735.9,286047002.4,N
1506382755.7,286047002.5,N
1506382775.6,286047000.7,N
1506382795.4,286047000.5,N
1506382815.2,286046997.4,N
1506382835.1,286046995.3,N
1506382836.0,286046995.3,N
1506382855.8,286046996.2,N
1506382875.6,286046993.8,N
1506382895.5,286046994.1,N
1506382915.3,286046996.3,N
1506382935.1,286046997.7,N
1506382955.9,286046994.5,N
1506382975.7,286046994.6,N
1506382995.5,286046991.9,N
1506383015.3,286046992.8,N
1506383035.2,286046989.0,Y
1506383055.0,286046993.1,P
1506383055.9,286046993.1,P
1506383075.7,286046992.9,P
1506383095.6,286046992.7,Y
1506383115.4,286046993.8,P
1506383135.2,286046991.5,P
1506383155.1,286046991.1,P
1506383156.0,286046991.1,Y
1506383175.8,286047000.6,P
1506383195.7,286047005.9,N
1506383215.5,286047010.3,N
1506383235.3,286047011.6,N
1506383255.1,286047014.6,N
1506383275.9,286047018.8,N
1506383295.7,286047018.2,N
1506383315.5,286047021.9,N
1506383335.4,286047022.2,N
1506383355.2,286047024.1,N
1506383375.0,286047029.1,Y
1506383375.9,286047029.1,P
1506383395.8,286047017.6,N
1506383415.6,286047015.2,N
1506383435.4,286047015.9,N
1506383455.3,286047016.3,N
1506383475.1,286047014.8,N
1506383495.8,286047018.0,Y
1506383515.7,286047003.3,P
1506383535.5,286047007.1,N
1506383555.3,286047002.5,N
1506383575.2,286047000.1,N
1506383595.9,286047000.9,N
1506383615.7,286047001.2,N
1506383635.6,286047003.3,N
1506383655.4,286047005.7,N
1506383675.2,286047005.4,N
1506383695.0,286047005.4,N
1506383696.0,286047005.4,N
1506383715.8,286047003.0,N
1506383735.6,286047003.7,N
1506383755.4,286047005.2,N
1506383775.3,286047003.8,N
1506383795.1,286047001.6,N
1506383815.8,286047003.2,N
1506383835.7,286047003.5,N
1506383855.5,286047000.4,N
1506383875.3,286047001.1,N
1506383895.2,286047002.0,N
1506383915.9,286047001.2,N
1506383935.7,286046998.3,N
1506383955.6,286046995.0,N
1506383975.4,286046995.5,N
1506383995.2,286046996.3,N
